Wind_Speed
12 12 10 9 11 8 4 8 8 9 9 7 9 8 10 11 12 12 13 15 14 14 14 14 13 12 15 17 15 14 14 16 16 19 20 18 15 13 12 12 12 11 10
11 12 11 12 14 13 13 9 10 5 9 9 9 8 9 11 12 13 14 15 16 16 15 16 16 15 15 15 14 15 16 17 17 19 19 19 19 17 16 15 16 16 15
11 11 12 14 15 16 15 15 13 11 9 8 8 11 10 11 12 13 14 15 15 16 17 15 15 14 14 14 13 14 15 17 16 18 17 17 17 17 16 17 16 17 17
11 11 13 14 13 14 14 13 11 12 12 13 12 12 13 12 12 11 13 14 15 14 15 13 13 13 13 14 15 15 16 18 18 18 17 18 18 19 18 18 19 20 20
12 10 14 13 13 13 14 13 9 12 13 14 15 13 13 12 10 11 11 14 15 14 14 13 13 12 13 14 13 12 13 14 14 14 14 15 16 17 17 18 19 20 21
12 11 13 14 15 14 14 12 11 9 7 11 10 12 11 9 11 12 14 15 17 16 15 14 14 14 13 13 14 13 13 13 15 17 17 19 20 21 21 21 21 21 22
12 11 11 12 12 13 13 13 10 11 9 9 9 10 10 10 10 12 14 16 15 15 14 15 14 13 14 16 15 15 17 18 20 21 22 22 23 22 21 19 19 21 22
12 12 11 9 9 9 10 11 10 11 10 9 8 10 11 13 12 13 15 14 13 12 13 13 14 15 15 16 17 19 19 19 19 21 20 20 21 20 19 17 15 14 20
10 10 10 7 7 7 7 7 6 7 8 9 8 9 8 10 11 11 11 10 11 12 13 15 16 17 17 17 16 16 15 15 15 17 17 18 20 18 18 18 21 21 21
9 9 9 7 6 5 6 7 6 4 5 7 8 8 9 10 11 10 12 13 14 14 15 16 16 17 17 16 15 14 13 14 15 16 16 17 19 18 17 18 21 23 25
10 8 7 5 4 3 3 5 5 4 5 5 5 5 7 7 8 10 11 13 14 15 14 15 15 14 14 14 13 13 13 13 15 17 15 19 17 18 18 19 21 24 23
10 9 7 6 5 4 5 5 6 5 5 4 3 4 5 6 7 9 9 12 12 13 13 12 12 11 12 13 13 13 14 15 15 18 24 24 25 27 28 28 24 27 26
10 9 8 7 7 6 5 5 8 7 6 4 4 5 5 6 7 8 8 9 12 12 10 8 9 11 12 12 12 13 15 18 21 23 29 29 31 32 34 31 29 32 31
11 10 8 8 6 7 6 7 9 9 8 7 6 6 7 8 9 9 9 10 9 6 7 9 9 8 10 11 13 14 18 22 23 26 29 31 32 34 33 32 34 37 33
14 11 8 7 6 6 8 9 10 10 9 9 9 9 9 11 11 12 11 9 7 5 7 9 10 10 11 12 13 15 19 21 24 28 30 34 36 37 40 41 37 37 38
17 14 10 8 7 6 7 9 10 11 11 11 11 11 11 12 13 13 11 9 6 5 6 6 8 10 10 11 13 15 18 22 25 29 34 39 41 42 40 40 40 40 42
18 17 13 12 10 7 6 8 9 10 12 12 12 13 14 13 13 11 9 7 4 5 6 5 5 8 11 13 16 20 24 28 32 34 34 38 42 46 44 41 38 42 44
19 18 16 15 14 12 9 8 10 11 11 12 13 13 15 16 16 13 10 6 3 3 5 5 5 8 11 15 19 22 28 32 34 36 37 38 39 44 46 43 41 41 44
21 20 19 18 17 15 14 12 11 13 13 12 14 14 15 16 17 14 11 8 3 2 4 6 8 11 14 16 20 22 24 26 29 33 35 38 40 43 42 40 39 43 45
23 23 22 21 19 16 16 15 16 15 14 14 13 14 15 15 14 14 12 8 4 2 3 4 6 7 10 14 17 18 23 31 33 33 38 42 43 44 42 41 44 44 45
25 25 24 23 20 17 17 18 20 20 16 15 13 12 13 14 12 12 13 8 5 4 4 5 4 6 8 12 15 19 21 23 29 31 35 43 46 46 43 43 46 49 45
28 26 25 24 21 19 20 21 21 20 17 15 15 15 13 13 12 13 13 9 5 5 6 5 6 7 8 8 11 14 17 21 23 28 30 38 42 44 44 45 47 48 44
32 28 27 25 21 19 20 18 17 18 16 16 15 15 16 13 12 13 13 10 8 7 8 6 8 9 11 13 13 14 18 21 25 29 30 35 37 38 38 39 40 44 45
34 31 30 28 24 21 20 16 14 14 14 15 15 16 15 15 15 14 12 11 11 10 10 8 8 10 11 13 15 16 18 19 23 26 30 32 34 36 37 38 39 39 40
37 33 32 31 26 25 23 19 16 16 18 18 16 15 15 15 17 16 12 11 11 11 13 11 12 13 15 17 18 18 21 23 25 26 28 29 32 35 36 37 40 39 40
37 36 35 33 30 28 26 21 18 17 17 19 17 14 15 17 20 20 15 15 13 16 15 14 15 17 19 20 22 24 26 27 28 27 28 30 31 34 38 38 39 42 39
Wind_Direction
90 82 70 61 80 83 106 133 115 99 102 101 90 87 89 90 86 84 79 77 81 84 83 82 80 77 83 85 78 66 53 46 43 45 47 49 47 42 36 30 21 16 5
85 78 67 66 74 83 68 88 105 57 99 104 89 86 87 92 95 89 85 83 84 84 83 86 90 88 84 77 69 67 63 56 49 49 46 41 41 39 36 30 24 22 20
89 77 71 74 75 82 86 97 110 117 110 120 112 107 105 105 95 89 89 88 89 89 88 89 87 80 78 80 75 63 59 61 53 49 48 44 40 34 29 24 19 15 9
93 85 83 82 86 88 91 91 96 104 113 107 111 110 110 104 97 93 98 98 95 90 88 89 85 79 77 65 59 61 62 58 49 44 43 37 33 29 23 17 13 6 358
102 104 97 94 95 97 101 106 103 105 115 120 115 112 114 111 107 98 94 95 94 85 87 89 86 80 70 63 67 71 65 58 56 52 44 37 28 20 17 9 4 358 352
105 104 104 99 99 103 107 111 109 108 118 111 115 115 108 105 102 106 103 103 103 96 89 85 84 78 77 75 74 72 67 62 55 45 34 28 21 12 5 1 354 347 343
118 108 103 105 102 102 110 109 111 103 105 109 115 110 103 96 97 105 108 112 104 95 92 91 83 76 74 70 69 66 56 46 36 24 16 12 8 1 358 354 346 340 332
127 123 113 108 110 107 110 110 117 114 117 112 111 109 105 104 99 103 109 109 99 98 96 85 80 72 67 60 48 40 34 25 18 10 0 354 349 350 346 346 348 345 341
143 138 127 133 119 117 119 112 105 103 99 100 102 97 96 109 114 117 113 108 104 95 83 79 69 62 56 55 50 36 26 15 5 351 344 339 336 341 339 340 343 335 341
165 160 152 152 144 126 133 137 131 112 92 79 77 83 84 98 105 106 108 102 92 84 74 66 56 50 43 37 36 31 20 10 1 357 356 354 354 345 341 331 326 328 322
180 177 171 171 158 145 151 141 146 144 116 104 90 81 82 79 82 91 92 96 90 77 65 54 47 43 38 38 37 34 26 21 13 12 9 9 2 356 346 328 321 320 321
196 197 184 166 175 171 167 162 162 173 144 146 132 109 98 96 90 93 96 97 88 81 65 52 47 48 49 51 47 42 37 37 31 14 14 11 6 357 354 348 340 347 339
204 211 205 193 188 174 171 162 174 165 166 163 158 133 131 126 117 111 111 101 101 90 61 60 57 57 57 53 47 36 27 21 14 9 7 3 359 356 345 337 334 333 341
204 212 205 205 196 179 170 166 172 163 159 167 166 153 147 144 135 129 124 115 114 86 84 73 70 63 44 36 32 31 25 11 10 6 1 358 356 352 339 352 350 347 338
213 216 205 192 192 199 182 180 172 164 162 157 160 153 150 150 148 141 133 134 138 125 68 53 47 37 27 23 16 18 13 6 3 358 354 353 352 350 346 349 347 338 335
218 219 207 185 188 200 194 192 187 172 166 163 160 161 161 159 160 156 154 151 135 79 46 37 28 23 22 20 17 11 6 0 357 355 352 351 351 349 348 346 343 343 338
220 221 210 199 198 209 211 196 204 201 180 176 167 173 176 176 176 177 177 168 125 70 48 41 24 22 31 23 12 9 6 0 355 353 353 351 350 349 349 347 347 345 343
222 225 219 209 210 217 229 225 212 215 209 195 191 184 188 191 193 195 197 192 152 49 24 32 16 3 8 14 14 9 2 354 351 347 344 345 348 347 346 344 347 348 344
219 223 223 218 218 222 228 235 233 222 222 206 205 207 204 205 206 204 206 209 219 350 4 3 12 11 9 6 2 358 354 346 346 346 348 348 349 349 346 341 346 347 346
224 224 223 225 226 230 234 235 237 234 230 229 221 218 217 219 217 211 209 213 226 284 329 342 340 351 353 351 352 349 355 354 348 350 346 343 349 349 350 348 346 347 346
225 228 226 227 232 239 240 237 236 234 235 235 236 232 230 231 223 215 211 207 221 267 293 310 306 320 349 345 349 347 351 354 349 350 348 346 346 349 350 348 349 349 347
229 230 229 229 234 240 245 242 237 238 237 239 238 241 239 240 240 227 223 216 217 258 276 277 275 291 310 323 337 340 349 352 354 351 353 347 348 348 348 347 345 347 347
234 233 231 231 236 235 243 246 233 234 237 236 238 244 247 235 232 228 228 222 230 249 256 266 273 287 298 311 321 330 338 346 351 352 356 351 350 347 344 343 347 346 345
234 234 233 232 233 230 232 240 245 247 244 242 245 245 246 239 225 224 227 230 238 243 252 258 266 279 290 301 315 325 333 342 345 346 350 351 348 349 347 348 350 348 345
234 235 234 231 233 230 228 233 243 251 252 253 248 249 246 245 229 230 227 231 239 246 250 263 275 288 296 304 313 324 331 336 340 340 342 348 347 349 349 348 352 351 347
236 235 234 230 232 232 233 242 250 252 248 244 244 253 252 242 237 236 238 245 249 257 265 272 278 282 290 300 311 322 325 329 330 333 336 344 347 350 352 349 352 355 354
Height
5927 5928 5928 5927 5926 5926 5927 5928 5929 5930 5930 5930 5930 5930 5930 5930 5931 5931 5930 5929 5930 5930 5930 5930 5931 5930 5931 5930 5930 5929 5929 5928 5927 5925 5923 5922 5922 5921 5920 5919 5918 5917 5914
5930 5930 5930 5929 5928 5930 5930 5931 5931 5932 5931 5931 5932 5932 5932 5933 5933 5933 5933 5932 5932 5933 5933 5933 5933 5934 5934 5934 5933 5933 5932 5931 5930 5928 5927 5927 5926 5924 5923 5922 5920 5918 5917
5933 5932 5932 5931 5931 5930 5931 5931 5932 5934 5933 5930 5933 5934 5935 5936 5936 5936 5936 5936 5934 5935 5937 5936 5937 5937 5937 5937 5937 5936 5936 5935 5933 5931 5930 5929 5928 5927 5926 5925 5923 5921 5919
5936 5935 5934 5934 5933 5933 5934 5934 5935 5935 5935 5936 5936 5937 5938 5939 5939 5938 5938 5938 5938 5938 5940 5940 5940 5941 5940 5941 5940 5939 5938 5937 5936 5935 5933 5932 5931 5930 5929 5928 5926 5924 5921
5938 5938 5937 5937 5937 5937 5937 5937 5937 5937 5938 5937 5938 5940 5940 5941 5941 5941 5942 5942 5942 5942 5943 5943 5944 5943 5944 5944 5944 5943 5942 5940 5939 5937 5936 5934 5934 5932 5930 5928 5925 5923 5921
5941 5941 5941 5940 5939 5940 5939 5940 5939 5941 5941 5941 5943 5943 5943 5944 5944 5944 5945 5946 5946 5947 5947 5947 5947 5948 5948 5947 5946 5945 5944 5943 5941 5939 5938 5936 5935 5933 5930 5928 5926 5923 5921
5943 5943 5945 5943 5942 5942 5943 5942 5943 5943 5944 5944 5945 5946 5947 5947 5947 5948 5949 5949 5949 5950 5950 5951 5951 5950 5949 5948 5947 5946 5945 5944 5942 5940 5939 5937 5936 5934 5932 5929 5927 5924 5921
5945 5945 5946 5947 5947 5946 5946 5945 5946 5946 5946 5948 5949 5949 5949 5950 5950 5951 5951 5952 5953 5953 5954 5954 5954 5953 5952 5951 5950 5949 5948 5946 5945 5944 5942 5940 5939 5937 5934 5931 5928 5925 5921
5947 5947 5948 5950 5949 5949 5949 5948 5947 5948 5949 5949 5951 5951 5952 5953 5953 5953 5954 5955 5956 5957 5957 5956 5956 5955 5954 5954 5953 5952 5951 5950 5948 5948 5946 5943 5941 5938 5935 5932 5929 5925 5921
5950 5950 5950 5951 5952 5951 5951 5951 5950 5949 5951 5951 5952 5953 5953 5954 5955 5956 5956 5958 5958 5959 5958 5958 5958 5957 5957 5956 5956 5955 5954 5953 5952 5950 5948 5945 5943 5939 5935 5932 5927 5924 5920
5951 5951 5951 5953 5953 5953 5953 5953 5953 5952 5952 5952 5953 5954 5955 5956 5957 5958 5958 5959 5960 5961 5961 5961 5961 5961 5961 5960 5959 5958 5957 5956 5954 5952 5950 5947 5943 5939 5936 5931 5927 5922 5918
5952 5953 5953 5954 5955 5955 5955 5955 5954 5954 5954 5954 5955 5956 5957 5958 5959 5960 5961 5962 5963 5964 5964 5965 5965 5965 5964 5963 5962 5961 5960 5958 5956 5953 5950 5947 5943 5938 5934 5929 5923 5918 5914
5952 5953 5954 5955 5955 5956 5956 5956 5956 5956 5956 5956 5956 5958 5959 5960 5962 5963 5965 5966 5967 5968 5968 5968 5968 5967 5966 5965 5964 5962 5961 5959 5956 5953 5949 5945 5941 5936 5930 5924 5918 5914 5908
5952 5953 5953 5955 5956 5956 5957 5958 5958 5958 5958 5958 5959 5960 5962 5963 5964 5966 5968 5969 5970 5971 5971 5971 5970 5969 5968 5967 5966 5964 5961 5958 5955 5952 5948 5943 5939 5934 5926 5919 5913 5907 5903
5951 5952 5953 5954 5955 5957 5958 5959 5959 5959 5960 5959 5960 5961 5964 5965 5967 5968 5969 5971 5973 5973 5972 5971 5970 5969 5968 5967 5966 5963 5961 5958 5954 5950 5946 5941 5936 5930 5921 5914 5909 5904 5898
5950 5952 5953 5954 5956 5957 5959 5960 5960 5961 5961 5961 5961 5962 5964 5966 5968 5970 5971 5972 5973 5973 5973 5972 5971 5970 5969 5968 5966 5963 5960 5956 5953 5948 5942 5935 5930 5924 5919 5912 5905 5898 5891
5948 5950 5951 5953 5955 5957 5958 5959 5960 5961 5962 5962 5962 5963 5964 5966 5968 5971 5972 5972 5973 5973 5973 5972 5972 5970 5969 5967 5964 5961 5958 5954 5949 5945 5941 5934 5927 5919 5913 5907 5902 5894 5886
5946 5948 5950 5952 5954 5956 5957 5959 5960 5961 5962 5963 5964 5964 5965 5966 5968 5970 5971 5972 5972 5972 5972 5971 5970 5969 5967 5965 5962 5959 5956 5951 5947 5942 5937 5932 5927 5919 5910 5903 5898 5892 5883
5943 5945 5948 5950 5952 5953 5955 5958 5959 5961 5962 5963 5964 5965 5965 5966 5967 5969 5970 5971 5971 5971 5970 5969 5968 5967 5965 5962 5960 5958 5956 5953 5948 5942 5936 5930 5924 5916 5909 5901 5896 5888 5881
5940 5942 5944 5946 5949 5952 5954 5956 5958 5959 5961 5962 5963 5964 5965 5965 5966 5967 5969 5970 5970 5970 5969 5968 5967 5965 5964 5962 5960 5958 5954 5947 5943 5939 5933 5926 5920 5913 5905 5899 5892 5885 5876
5937 5938 5941 5943 5946 5949 5951 5953 5955 5956 5958 5959 5961 5962 5963 5964 5965 5966 5967 5968 5969 5968 5968 5966 5965 5964 5963 5961 5959 5955 5952 5949 5943 5937 5932 5923 5915 5908 5902 5896 5889 5881 5874
5933 5935 5938 5940 5942 5945 5946 5949 5951 5953 5955 5957 5958 5959 5961 5962 5963 5964 5965 5965 5966 5966 5966 5965 5964 5963 5961 5960 5957 5954 5951 5946 5944 5937 5931 5924 5915 5908 5900 5894 5887 5879 5872
5928 5932 5934 5937 5939 5941 5942 5944 5947 5949 5951 5953 5954 5955 5957 5959 5960 5961 5962 5962 5963 5963 5963 5963 5962 5961 5960 5958 5956 5953 5949 5945 5940 5934 5928 5922 5915 5909 5902 5895 5887 5878 5870
5924 5927 5930 5933 5935 5938 5939 5941 5943 5946 5948 5950 5951 5952 5953 5955 5957 5958 5959 5960 5960 5960 5960 5960 5960 5959 5957 5955 5953 5950 5947 5943 5938 5933 5927 5921 5915 5908 5900 5893 5885 5877 5870
5917 5922 5925 5928 5932 5934 5936 5938 5940 5942 5944 5945 5947 5948 5949 5951 5953 5954 5956 5956 5956 5956 5956 5957 5956 5955 5953 5951 5948 5946 5942 5938 5935 5931 5926 5921 5914 5907 5900 5892 5884 5877 5868
5910 5914 5919 5923 5927 5929 5932 5935 5937 5938 5939 5941 5942 5943 5945 5946 5947 5949 5951 5952 5953 5952 5952 5952 5952 5950 5949 5948 5945 5941 5938 5934 5931 5928 5923 5918 5911 5904 5897 5889 5882 5874 5866